Location: Fontevrault
(47.1823°N, 0.0493°E)
Time: 10:12:27
(UTC+00:00)

Cosmos 1536 Rocket - Pass Details

Date: 16 June 2021
Orbit: 604 x 633 km, 82.5° (Epoch: 03 August)

Event Time Altitude Azimuth Distance (km) Brightness Sun altitude
Exits shadow 22:35:23 19° 208° (SSW) 1,491 5.1 -16.9°
Maximum altitude 22:38:25 57° 282° (WNW) 747 4.1 -17.0°
Drops below altitude 10° 22:42:50 10° 2° (N) 2,018 7.3 -17.3°
Sets 22:45:07 0° 6° (N) 2,926 8.2 -17.4°
